Location: Vallejo Observatory
(38.1221°N, 122.2109°W)
Time: 08:51:04
(UTC-08:00)

Daily predictions for brighter satellites

Satellite Brightness Start Highest point End
(mag) Time Altitude Azimuth Time Altitude Azimuth Time Altitude Azimuth
IDEFIX/ARIANE 42P 4.1 17:13:45 10° S 17:18:37 42° W 17:23:31 10° NNW
Cosmos 1025 Rocket 4.4 17:17:12 10° SE 17:20:14 19° E 17:23:16 10° NE
Cosmos 158 Rocket 3.9 17:16:13 10° NNW 17:21:15 65° ENE 17:26:07 10° SSE
NOSS 3-2 (C) 4.4 17:15:23 10° NNW 17:22:30 43° NE 17:30:11 10° ESE
Cosmos 2084 4.0 17:19:06 10° S 17:23:02 39° ESE 17:26:48 10° NE
ATLAS 3B R/B 2.6 17:17:04 10° NNW 17:23:45 83° ENE 17:30:17 10° SSE
Cosmos 1980 Rocket 3.2 17:21:53 10° SSE 17:26:37 28° ESE 17:31:23 10° NE
ATLAS 2AS CENTAUR R/B 4.0 17:19:36 10° WSW 17:27:00 46° NW 17:34:47 10° NNE
Meteor 2-9 Rocket 4.2 17:21:48 10° N 17:27:12 59° E 17:32:27 10° SSE
Cosmos 1666 2.9 17:24:20 10° N 17:28:05 75° W 17:31:48 10° S
Cosmos 1656 3.7 17:25:40 10° SSW 17:31:15 85° ESE 17:36:47 10° NNE
Cosmos 1536 Rocket 3.5 17:30:09 10° S 17:34:30 83° E 17:38:51 10° N
CZ-2C R/B 4.0 17:32:54 10° NNE 17:37:32 54° E 17:42:11 10° S
USA 215 3.3 17:31:19 10° ESE 17:37:43 60° NE 17:44:08 10° NW
DELTA 2 R/B (1) 3.6 17:32:22 10° W 17:37:57 81° N 17:43:33 10° E
Cosmos 2297 Rocket 2.2 17:33:13 10° NNW 17:38:54 86° ENE 17:44:33 10° SSE
CZ-2C R/B 4.3 17:34:10 10° SSW 17:38:55 36° W 17:43:39 10° NNW
Cosmos 1484 Rocket 2.9 17:35:05 10° SSE 17:39:05 89° WSW 17:43:07 10° NNW
USA 161 4.4 17:38:52 10° NNW 17:40:59 18° WNW 17:43:07 10° WSW
Meteor 1-23 Rocket 4.3 17:37:32 10° S 17:43:11 63° E 17:48:48 10° NNE
NOSS 3-4 (A) 3.5 17:42:11 10° SSW 17:48:22 79° ESE 17:54:47 10° NE
NOSS 3-4 (C) 3.5 17:42:17 10° SSW 17:48:28 78° ESE 17:54:52 10° NE
SKYMED 2 3.9 17:47:59 10° NNE 17:52:08 43° E 17:56:16 10° S
BREEZE-M DEB (TANK) 3.0 17:49:54 10° WNW 17:52:53 79° SW 18:02:40 10° SE
SMAP 3.4 17:49:29 10° S 17:54:07 71° WSW 17:58:46 10° NNW
NOSS 2-2 (D) 4.3 17:52:31 10° S 17:55:53 29° ESE 17:57:48 20° ENE
Lacrosse 5 rocket 3.1 17:57:45 10° SSE 18:00:19 16° ESE 18:01:05 15° ESE
CZ-4 R/B 4.4 17:56:25 10° SSE 18:00:29 63° ENE 18:04:35 10° N
CENTAUR R/B 3.6 17:54:43 10° NNW 18:01:51 36° NE 18:09:26 10° ESE
METEOR-M 4.1 17:57:36 10° SSE 18:02:53 68° ENE 18:08:12 10° N
Atlas Centaur 2 4.2 17:59:56 10° WSW 18:04:08 20° SSW 18:07:43 10° SSE
Meteor 1-28 Rocket 4.2 18:01:57 10° N 18:05:35 46° WNW 18:09:13 10° SSW
FENGYUN 3A 3.9 18:01:43 10° SE 18:06:47 44° ENE 18:11:50 10° N
EP 2 4.1 18:05:33 10° SSW 18:08:15 74° ESE 18:09:03 39° NE
ALOS 2.5 18:05:49 10° SE 18:10:15 46° ENE 18:14:44 10° N
SL-8 R/B 4.2 18:06:18 10° SSW 18:10:54 46° SE 18:13:14 26° E
SL-16 R/B 3.4 18:06:47 10° SSE 18:10:56 21° E 18:11:33 21° E
NOSS 2-2 (E) 3.5 18:07:18 10° SSW 18:11:04 52° ESE 18:13:04 27° NE
Cosmos 2263 Rocket 4.0 18:08:43 10° NNE 18:09:39 12° NNE 18:09:39 12° NNE
Ariane Rocket 4.2 18:09:09 10° S 18:13:58 45° W 18:18:49 10° NNW
Nadezhda 2 Rocket 4.5 18:08:04 10° N 18:14:25 71° E 18:20:48 10° SSE
Cosmos 2322 Rocket 3.3 18:10:17 10° SSE 18:14:29 22° E 18:14:51 22° E
USA 116 4.2 18:11:56 10° N 18:14:55 43° WNW 18:17:53 10° SSW
Cosmos 1184 Rocket 3.2 18:12:02 10° SSE 18:15:05 37° E 18:15:10 37° E
IRS-1A Rocket 4.4 18:09:54 10° S 18:15:29 78° WSW 18:21:01 10° NNW
Cosmos 1515 3.9 18:12:25 10° SSW 18:16:11 71° W 18:19:58 10° N
RESURS DK-1 2.4 18:13:14 10° S 18:17:16 57° ESE 18:19:06 30° NE
NOSS 2-2 (C) 3.5 18:14:33 10° SSW 18:18:17 53° ESE 18:19:45 33° ENE
SPOT 3 Rocket 3.5 18:13:39 10° SSE 18:18:42 57° ENE 18:23:46 10° N
Cosmos 494 Rocket 4.0 18:14:18 10° N 18:19:30 58° ENE 18:24:38 10° SSE
MTI 4.0 18:17:47 14° N 18:20:27 70° WNW 18:23:40 10° SSW
Cosmos 1892 Rocket 4.1 18:16:33 10° SSE 18:20:37 35° E 18:21:25 33° ENE
YAOGAN 1 2.9 18:16:35 10° S 18:20:53 68° W 18:25:12 10° NNW
Cosmos 2360 4.1 18:16:35 10° SSW 18:22:17 79° ESE 18:26:48 17° NNE
EO 1 Del DPAF 3.1 18:21:11 18° NNE 18:23:58 83° ESE 18:27:46 10° S
Gblst 52 Del rocket 4.2 18:19:42 10° NW 18:25:21 69° NE 18:29:44 20° ESE
ERS-2 1.9 18:22:43 10° SSE 18:26:22 75° ENE 18:30:02 10° N
DELTA 2 R/B (2) 4.1 18:23:49 10° WSW 18:26:28 77° SSE 18:26:56 61° E
Cosmos 1697 Rocket 3.5 18:22:52 10° SW 18:28:19 48° WNW 18:33:47 10° NNE
Cosmos 2251 Rocket 3.7 18:24:27 10° N 18:29:33 47° ENE 18:34:34 10° SE
Cosmos 2344 4.2 18:23:09 10° S 18:29:52 33° ESE 18:32:09 28° E
Thor Agena Rocket 4.3 18:30:08 31° E 18:30:08 31° E 18:34:45 10° SSE
PSLV R/B 3.3 18:27:57 10° WNW 18:30:54 55° N 18:30:54 55° N
SJ 16-02 3.9 18:34:36 10° WSW 18:37:35 18° WNW 18:40:36 10° NNW
CZ-4 R/B 3.6 18:34:50 10° SSW 18:38:06 26° W 18:41:26 10° NW
COSMO-SKYMED 1 3.4 18:35:58 10° N 18:40:11 50° WNW 18:44:22 10° SSW
S3M 3.8 18:45:37 10° S 18:51:41 72° E 18:56:00 20° NNE
Shenzhou-11 Module 4.3 18:57:46 10° SW 18:59:01 22° SW 18:59:01 22° SW
Cosmos 1386 Rocket 4.5 18:58:34 10° N 19:04:52 58° E 19:11:09 10° SSE
Cosmos 2360 Rocket 4.5 19:04:18 10° SSE 19:04:20 10° SSE 19:04:20 10° SSE
FengYun 1-2 T 4.1 19:04:02 10° SSE 19:09:39 85° ENE 19:15:20 10° NNW
Cosmos 1980 Rocket 3.4 19:05:10 10° SW 19:10:25 38° WNW 19:14:03 18° N
DELTA 2 R/B (1) 4.0 19:18:54 10° W 19:24:19 53° SSW 19:24:31 53° SSW
Meteor 1-22 Rocket 4.4 19:23:57 10° NNW 19:29:50 72° W 19:35:25 10° S
Lacrosse 5 rocket 3.5 19:34:56 10° SW 19:36:48 25° WSW 19:36:48 25° WSW
Cosmos 1745 Rocket 4.4 19:33:29 10° NNW 19:39:35 59° W 19:45:43 10° S
CENTAUR R/B 3.5 19:45:07 10° NW 19:53:04 62° WSW 19:57:06 33° S
SL-16 R/B 3.2 19:49:10 10° SW 19:53:30 43° W 19:53:30 43° W
Cosmos 2263 Rocket 4.4 19:50:37 10° NNW 19:51:24 14° NNW 19:51:24 14° NNW
Cosmos 2322 Rocket 3.4 19:52:46 10° SW 19:56:45 38° W 19:56:45 38° W
